Pontiac, IL

9:56 AM CST on December 16, 2017 (GMT -0600)
Pontiac Municipal

Weather History for KPNT - May, 2013

Change the Weather History Date:

Tuesday, May 7, 2013

  Actual Average Record
Temperature  
Mean Temperature 66 °F -  
Max Temperature 80 °F 70 °F 91 °F (2014)
Min Temperature 51 °F 46 °F 25 °F (1989)
Growing Degree Days 16 (Base 50)    
Moisture  
Dew Point 41 °F    
Average Humidity 35    
Maximum Humidity 76    
Minimum Humidity 22    
Precipitation  
Precipitation 0.00 in - - ()
Sea Level Pressure  
Sea Level Pressure 30.00 in    
Wind  
Wind Speed 8 mph (NNE)    
Max Wind Speed 12 mph    
Max Gust Speed 16 mph    
Visibility 10 miles    
Events      
Averages and records for this station are not official NWS values.
T = Trace of Precipitation, MM = Missing Value Source: NWS Daily Summary

Daily Weather History Graph

Daily Weather History Graph

Search for Another Location

Airport or City:

Trip Planner

Search our weather history database for the weather conditions in past years. The results will help you decide how hot, cold, wet, or windy it might be!

Date:

Astronomy

May. 07, 2013 Rise Set
Actual Time 5:45 AM CDT 7:57 PM CDT
Civil Twilight 5:14 AM CDT 8:28 PM CDT
Nautical Twilight 4:37 AM CDT 9:05 PM CDT
Astronomical Twilight 3:56 AM CDT 9:47 PM CDT
Moon 4:20 AM CDT (5/7) 5:56 PM CDT (5/7)
Length of Visible Light 15h 13m
Length of Day
14h 12m
Waning Crescent, 5% of the Moon is Illuminated
May 7
Waning Crescent
May 9
New
May 17
First Quarter
May 24
Full
May 31
Last Quarter

Hourly Weather History & Observations

Time (CDT) Temp. Dew Point Humidity Pressure Visibility Wind Dir Wind Speed Gust Speed Precip Events Conditions
12:35 AM 55.4 °F 42.8 °F 63% 30.01 in 10.0 mi NE 8.1 mph - N/A   Clear
12:55 AM 55.4 °F 42.8 °F 63% 30.01 in 10.0 mi NE 8.1 mph - N/A   Clear
1:57 AM 55.4 °F 41.0 °F 58% 30.00 in 10.0 mi NNE 4.6 mph - N/A   Clear
6:56 AM 51.8 °F 44.6 °F 76% 30.03 in 10.0 mi NNW 5.8 mph - N/A   Clear
9:15 AM 66.2 °F 42.8 °F 43% 30.04 in 10.0 mi NNW 6.9 mph - N/A   Clear
9:35 AM 68.0 °F 41.0 °F 37% 30.04 in 10.0 mi North 6.9 mph - N/A   Clear
10:15 AM 71.6 °F 35.6 °F 27% 30.04 in 10.0 mi North 9.2 mph - N/A   Clear
11:15 AM 75.2 °F 35.6 °F 24% 30.03 in 10.0 mi North 11.5 mph - N/A   Clear
11:35 AM 77.0 °F 35.6 °F 22% 30.02 in 10.0 mi NNE 11.5 mph - N/A   Clear
11:55 AM 77.0 °F 37.4 °F 24% 30.02 in 10.0 mi NE 10.4 mph - N/A   Clear
1:15 PM 78.8 °F 39.2 °F 24% 30.00 in 10.0 mi North 6.9 mph - N/A   Unknown
1:55 PM 78.8 °F 41.0 °F 26% 29.99 in 10.0 mi SE 5.8 mph - N/A   Clear
3:15 PM 78.8 °F 42.8 °F 28% 29.97 in 10.0 mi NW 4.6 mph - N/A   Scattered Clouds
3:35 PM 80.6 °F 42.8 °F 26% 29.97 in 10.0 mi North 6.9 mph - N/A   Clear
3:55 PM 80.6 °F 42.8 °F 26% 29.97 in 10.0 mi NE 8.1 mph 16.1 mph N/A   Scattered Clouds
4:15 PM 80.6 °F 42.8 °F 26% 29.97 in 10.0 mi NNE 9.2 mph - N/A   Scattered Clouds
4:35 PM 78.8 °F 42.8 °F 28% 29.97 in 10.0 mi North 4.6 mph - N/A   Scattered Clouds
4:55 PM 78.8 °F 42.8 °F 28% 29.97 in 10.0 mi NE 8.1 mph - N/A   Scattered Clouds
5:15 PM 78.8 °F 42.8 °F 28% 29.97 in 10.0 mi NNE 6.9 mph - N/A   Scattered Clouds
5:35 PM 78.8 °F 42.8 °F 28% 29.96 in 10.0 mi NE 6.9 mph - N/A   Scattered Clouds
5:55 PM 78.8 °F 42.8 °F 28% 29.97 in 10.0 mi NE 8.1 mph - N/A   Clear